Flag for U.S.A. Weather past 2 weeks in Newport News, Virginia, U.S.A.

Now
42 °F

Overcast.


Feels Like: 34 °F
Forecast: 35 / 45 °F
Wind: 16 mph from North

Location: Newport News / Williamsburg International Airport

Current Time: Mar 28, 2015 at 5:50:11 AM

Latest Report: Mar 28, 2015 at 4:54 AM


Visibility: 10 mi

Pressure: 29.83 "Hg

Humidity: 62%

Dew point: 30 °F

Location of Newport NewsLocation

Historic Weather in Newport News — Graph

°F

Newport News temperature yesterday

Maximum temperature yesterday: 67 °F (at 1:54 AM)
Minimum temperature yesterday: 43 °F (at 7:54 PM)
Average temperature yesterday: 48 °F

Past Weeks' High & Low Weather Summary

 TemperatureHumidityPressure
High80 °F (Mar 17, 2:54 PM)91% (Mar 14, 5:54 PM)30.60 "Hg (Mar 14, 5:54 PM)
Low32 °F (Mar 13, 6:54 AM)19% (Mar 15, 5:54 PM)29.66 "Hg (Mar 17, 2:54 PM)
Average52 °F61%30.08 "Hg
* Reported Mar 13 4:54 AM — Mar 28 4:54 AM, Newport News, Weather by CustomWeather, © 2015

Note: Actual official high and low records may vary slightly from our data, if they occured in-between our weather recording intervals... More about our weather records

Advertising

Newport News weather history for previous 24 hours

 ConditionsComfort  
Time TempWeatherWind HumidityBarometerVisibility
4:54 AM
Sat, Mar 28
42 °FOvercast.16 mph62%29.83 "Hg10 mi
3:54 AM42 °FClear.12 mph68%29.80 "Hg10 mi
1:54 AM44 °FMostly cloudy.9 mph76%29.80 "Hg10 mi
12:54 AM43 °FOvercast.7 mph79%29.80 "Hg9 mi
11:54 PM
Fri, Mar 27
43 °FOvercast.7 mph79%29.80 "Hg8 mi
10:54 PM43 °FOvercast.3 mph79%29.80 "Hg6 mi
9:54 PM43 °FMostly cloudy.6 mph79%29.81 "Hg8 mi
7:54 PM43 °FLow clouds.5 mph79%29.79 "Hg9 mi
6:04 PM44 °FLight rain. Mostly cloudy.6 mph82%29.78 "Hg3 mi
2:54 PM46 °FLight rain. Overcast.9 mph77%29.77 "Hg10 mi
12:54 PM46 °FLight rain. Mostly cloudy.12 mph79%29.81 "Hg3 mi
11:54 AM47 °FLight rain. Mostly cloudy.14 mph77%29.78 "Hg4 mi
10:54 AM48 °FMostly cloudy.17 mph68%29.77 "Hg10 mi
9:54 AM49 °FMore clouds than sun.12 mph69%29.76 "Hg9 mi
8:54 AM51 °FLight rain. Mostly cloudy.17 mph69%29.76 "Hg10 mi
7:54 AM51 °FMostly cloudy.9 mph69%29.76 "Hg10 mi
5:54 AM53 °FMostly cloudy.15 mph66%29.71 "Hg10 mi
Weather by CustomWeather, © 2015

See weather overviewHow to use our weather pages